Regional Weather Roundup
Issued by NWS

Home | Current Version | Previous Version | Text Only | Print | Product List | Glossary On
Versions: 1 2 3 4 5 6 7 8 9 10 11 12 13 14 15 16 17 18 19 20 21 22 23 24 25 26 27 28 29 30 31 32 33 34 35 36 37 38 39 40 41 42 43 44 45 46 47 48 49 50
000
ASUS43 KBIS 020620
RWRND

NORTH DAKOTA REGIONAL WEATHER ROUNDUP
NATIONAL WEATHER SERVICE BISMARCK ND
100 AM CDT THU APR 02 2015

NOTE: "FAIR" INDICATES FEW OR NO CLOUDS BELOW 12,000 FEET WITH NO
SIGNIFICANT WEATHER AND/OR OBSTRUCTIONS TO VISIBILITY.


NDZ001>003-009>011-017-020700-
NORTHWEST NORTH DAKOTA

CITY           SKY/WX    TMP DP  RH WIND       PRES   REMARKS
WILLISTON      CLEAR     41  23  48 W14       29.64F
6HR MIN TEMP:  35; 6HR MAX TEMP:  52;

MINOT          CLEAR     38  23  55 SW8       29.59F
MINOT AFB      CLEAR     37  27  67 SW13      29.58F
$$

NDZ018>021-031>035-040>046-020700-
SOUTHWEST NORTH DAKOTA

CITY           SKY/WX    TMP DP  RH WIND       PRES   REMARKS
BISMARCK       PTCLDY    40  22  48 W7        29.70F
6HR MIN TEMP:  40; 6HR MAX TEMP:  58;

DICKINSON      CLEAR     35  20  54 SW17      29.71F
GARRISON         N/A     33  25  72 SW10      29.65F
6HR MIN TEMP:  31; 6HR MAX TEMP:  55;

HETTINGER ARPT CLEAR     28  19  69 W6        29.78F
$$

NDZ004>008-012>016-024-026-027-054-020700-
NORTHEAST NORTH DAKOTA

CITY           SKY/WX    TMP DP  RH WIND       PRES   REMARKS
GRAND FORKS    CLEAR     42  31  64 W12       29.58R
GRND FRKS AFB  CLEAR     40  30  66 W8        29.58S
DEVILS LAKE    CLEAR     36  25  64 W12       29.58S
$$

NDZ022-023-025-028>030-036>039-047>053-020700-
SOUTHEAST NORTH DAKOTA

CITY           SKY/WX    TMP DP  RH WIND       PRES   REMARKS
FARGO          PTCLDY    42  29  59 SW7       29.62F
6HR MIN TEMP:  42; 6HR MAX TEMP:  64;

JAMESTOWN      PTCLDY    38  26  62 W9        29.64S
$$



USA.gov is the U.S. government's official web portal to all federal, state and local government web resources and services.